Location: Asheville, NC
(35.6000°N, 82.5500°W)
Time: 23:10:46
(UTC-05:00)

Vanguard 2 Rocket - All Passes

Search period start: 24 February 2018 00:00
Search period end: 06 March 2018 00:00
Orbit: 555 x 3327 km, 32.9° (Epoch: 24 February)

Date Brightness Start Highest point End Pass type
(mag) Time Alt. Az. Time Alt. Az. Time Alt. Az.
24 Feb - 00:20:02 10° W 00:33:03 81° S 00:53:07 10° E visible
24 Feb - 02:34:41 10° W 02:51:15 69° SSW 03:11:22 10° ESE visible
24 Feb - 04:51:38 10° W 05:08:44 40° SW 05:25:22 10° SSE visible
24 Feb - 07:17:57 10° WSW 07:24:00 12° SW 07:29:45 10° SSW daylight
24 Feb - 19:01:56 10° SSE 19:04:39 12° SE 19:07:47 10° ESE visible
24 Feb - 21:08:37 10° SW 21:16:35 49° SSE 21:30:23 10° E visible
24 Feb - 23:20:35 10° WSW 23:31:43 79° S 23:50:27 10° E visible
25 Feb - 01:34:27 10° W 01:49:17 75° SSW 02:09:45 10° ESE visible
25 Feb - 03:50:07 10° W 04:07:11 50° SSW 04:25:38 10° SE visible
25 Feb - 06:10:44 10° W 06:23:22 21° SW 06:35:14 10° S visible
25 Feb - 20:10:36 10° SSW 20:17:06 34° SE 20:27:41 10° E visible
25 Feb - 22:21:29 10° WSW 22:30:55 73° SSE 22:47:40 10° E visible
26 Feb - 00:34:37 10° W 00:47:34 79° S 01:07:34 10° ESE visible
26 Feb - 02:49:19 10° W 03:05:25 59° SSW 03:25:05 10° SE visible
26 Feb - 05:07:12 10° W 05:22:22 30° SW 05:37:29 10° S visible
26 Feb - 19:13:20 10° S 19:18:06 20° SE 19:24:49 10° E visible
26 Feb - 21:22:44 10° SW 21:30:41 61° SSE 21:44:59 10° E visible
26 Feb - 23:35:08 10° W 23:46:14 81° S 00:04:57 10° E visible
27 Feb - 01:49:02 10° W 02:03:39 67° SSW 02:23:46 10° ESE visible
27 Feb - 04:05:10 10° W 04:21:03 39° SW 04:38:23 10° SSE visible
27 Feb - 06:30:43 10° WSW 06:36:56 12° SW 06:43:02 10° SSW visible
27 Feb - 20:24:20 10° SW 20:30:59 46° SSE 20:42:30 10° E visible
27 Feb - 22:35:58 10° WSW 22:45:22 78° S 23:02:11 10° E visible
28 Feb - 00:49:12 10° W 01:02:03 73° SSW 01:21:49 10° ESE visible
28 Feb - 03:04:06 10° W 03:19:30 48° SSW 03:38:18 10° SE visible
28 Feb - 05:23:58 10° W 05:36:02 20° SW 05:48:15 10° S visible
28 Feb - 19:26:26 10° SSW 19:31:47 30° SE 19:40:12 10° E visible
28 Feb - 21:37:05 10° WSW 21:45:01 71° SSE 21:59:31 10° E visible
28 Feb - 23:49:43 10° W 00:00:47 78° S 00:19:22 10° ESE visible
01 Mar - 02:03:43 10° W 02:17:54 56° SSW 02:37:22 10° SE visible
01 Mar - 04:20:51 10° W 04:34:52 28° SW 04:50:14 10° S visible
01 Mar - 18:29:20 10° S 18:32:57 17° SE 18:37:42 10° E daylight
01 Mar - 20:38:28 10° WSW 20:45:08 59° SSE 20:57:07 10° E visible
01 Mar - 22:50:32 10° W 22:59:55 79° S 23:16:41 10° E visible
02 Mar - 01:03:49 10° W 01:16:27 64° SSW 01:35:45 10° ESE visible
02 Mar - 03:19:14 10° W 03:33:31 37° SW 03:50:49 10° SSE visible
02 Mar - 05:44:35 10° WSW 05:49:51 12° SW 05:55:10 10° SSW visible
02 Mar - 19:40:11 10° SW 19:45:44 43° SSE 19:55:03 10° E visible
02 Mar - 21:51:34 10° WSW 21:59:29 77° S 22:14:02 10° E visible
03 Mar - 00:04:19 10° W 00:15:16 71° SSW 00:33:35 10° ESE visible
03 Mar - 02:18:34 10° W 02:32:06 45° SSW 02:50:25 10° SE visible
03 Mar - 04:37:51 10° WSW 04:48:46 19° SW 05:00:35 10° S visible
03 Mar - 18:42:20 10° SSW 18:46:44 27° SE 18:53:14 10° E visible
03 Mar - 20:52:50 10° WSW 20:59:30 70° SSE 21:11:39 10° E visible
03 Mar - 23:05:07 10° W 23:14:27 75° S 23:31:05 10° ESE visible
04 Mar - 01:18:32 10° W 01:30:47 53° SSW 01:49:15 10° SE visible
04 Mar - 03:35:04 10° W 03:47:33 26° SW 04:02:23 10° S visible
04 Mar - 17:45:24 10° S 17:47:59 14° SE 17:51:05 10° ESE daylight
04 Mar - 19:54:20 10° WSW 19:59:56 56° SSE 20:09:41 10° E visible
04 Mar - 22:06:09 10° W 22:14:01 77° S 22:28:32 10° E visible
05 Mar - 00:18:57 10° W 00:29:43 60° SSW 00:47:27 10° SE visible
05 Mar - 02:33:49 10° W 02:46:18 34° SSW 03:02:44 10° SSE visible
05 Mar - 05:00:41 10° SW 05:02:51 10° SW 05:05:04 10° SW visible
05 Mar - 18:56:06 10° SW 19:00:46 39° SSE 19:08:07 10° E visible
05 Mar - 21:07:22 10° W 21:14:00 75° S 21:26:11 10° E visible
05 Mar - 23:19:43 10° W 23:28:58 67° SSW 23:45:15 10° ESE visible
